Погода в Вердереве

Россия / Рязанская область     53°52′42″N   39°39′11″E
темп.,
°C
ветер,
м/с
пор.,
м/с
влажн.,
%
обл.,
%
осадки,
мм/ч
давл.,
гПа
погр.,
м
15 мая, сб
сб1500:00+15ююв3393100 1.5 101247
03:00+15юв359486 1.9 101174
06:00+17вюв3695100 0.9 1009126
09:00+20ю71186100 1.6 1010600
12:00+20ю61080100 2.8 1011561
15:00+23ююз69655 3.1 10111388
18:00+20ююз510725 0.6 1012484
21:00+15ююз498533 0.6 1012167
16 мая, вс
вс1600:00+14юз49882 0.0 1013139
03:00+13ююз369022 0.0 1014109
06:00+14ююз3788100 0.0 1014169
09:00+19ююз46715 0.0 1015515
12:00+22ююз57550 0.0 10151823
15:00+23ююз47513 0.0 10142143
18:00+22юз23675 0.0 1014151
21:00+17с227799 0.0 101511
17 мая, пн
пн1700:00+15всв338498 0.0 101530
03:00+14всв358996 0.2 101585
06:00+15в399299 0.1 1015205
09:00+21вюв57715 0.1 1014446
12:00+24юв576024 0.0 1013749
15:00+26юв575822 0.0 1012938
18:00+23вюв5107053 0.0 1011413
21:00+18вюв514823 0.0 1011275
18 мая, вт
вт1800:00+18юв616729 0.0 1010358
03:00+16юв5146211 0.0 1010328
06:00+15юв4137687 0.0 1010285
09:00+20ююв6146690 0.0 1009555
12:00+24ююв7125742 0.0 1009881
15:00+25ююв61157100 0.0 10091516
18:00+22ююв487195 0.0 1008262
21:00+18ююв4783100 0.0 1008104
19 мая, ср
ср1900:00+15юз2692100 0.6 1008125
03:00+15ююв4993100 0.6 1008209
06:00+16ююв3993100 0.5 1007298
09:00+19ю61177100 0.8 1006801
12:00+19ююз71078100 2.6 10071006
15:00+18ююз6107950 4.4 10071076
18:00+17юз710832 1.4 1008917
21:00+13юз410925 1.4 1010274